• en France
  • Liste des pays
  • À 7 jours
  • Température de l'eau
  • Carte satellitaire
  • Carte météo
  • Widgets météo
  • user-avatar
    Se connecter

    Météo par heure à Horoda

    Ce jour, 19 Octobre, Vendredi

    Heure Température Précipitation Vent Pression Humidité
    00:00 +5°C° 0 mm 1 m/s 589 mmHg 51%
    01:00 +4°C° 0 mm 1 m/s 588 mmHg 53%
    02:00 +4°C° 0 mm 1 m/s 588 mmHg 54%
    03:00 +3°C° 0 mm 2 m/s 588 mmHg 53%
    04:00 +3°C° 0 mm 2 m/s 588 mmHg 54%
    05:00 +3°C° 0 mm 2 m/s 588 mmHg 55%
    06:00 +2°C° 0 mm 2 m/s 588 mmHg 57%
    07:00 +5°C° 0 mm 2 m/s 589 mmHg 51%
    08:00 +8°C° 0 mm 1 m/s 590 mmHg 45%
    09:00 +10°C° 0 mm 1 m/s 591 mmHg 39%
    10:00 +11°C° 0 mm 1 m/s 592 mmHg 37%
    11:00 +12°C° 0 mm 1 m/s 592 mmHg 34%
    12:00 +14°C° 0 mm 1 m/s 592 mmHg 32%
    13:00 +13°C° 0 mm 1 m/s 592 mmHg 35%
    14:00 +13°C° 0 mm 1 m/s 592 mmHg 37%
    15:00 +13°C° 0 mm 1 m/s 591 mmHg 40%
    16:00 +11°C° 0 mm 1 m/s 590 mmHg 50%
    17:00 +9°C° 0 mm 1 m/s 589 mmHg 60%
    18:00 +7°C° 0 mm 1 m/s 589 mmHg 70%
    19:00 +6°C° 0 mm 1 m/s 588 mmHg 71%
    20:00 +6°C° 0 mm 1 m/s 588 mmHg 72%
    21:00 +5°C° 0 mm 2 m/s 588 mmHg 73%
    22:00 +4°C° 0 mm 2 m/s 588 mmHg 75%
    23:00 +4°C° 0 mm 2 m/s 588 mmHg 77%

    Demain, 20 Octobre, Samedi

    Heure Température Précipitation Vent Pression Humidité
    00:00 +4°C° 0 mm 2 m/s 588 mmHg 79%
    01:00 +4°C° 0 mm 2 m/s 587 mmHg 77%
    02:00 +3°C° 0 mm 2 m/s 587 mmHg 76%
    03:00 +3°C° 0 mm 2 m/s 587 mmHg 75%
    04:00 +3°C° 0 mm 2 m/s 586 mmHg 69%
    05:00 +3°C° 0 mm 2 m/s 586 mmHg 63%
    06:00 +3°C° 0 mm 2 m/s 586 mmHg 57%
    07:00 +5°C° 0 mm 2 m/s 587 mmHg 49%
    08:00 +8°C° 0 mm 2 m/s 588 mmHg 40%
    09:00 +11°C° 0 mm 1 m/s 590 mmHg 32%
    10:00 +12°C° 0 mm 1 m/s 590 mmHg 31%
    11:00 +13°C° 0 mm 2 m/s 590 mmHg 30%
    12:00 +14°C° 0 mm 2 m/s 590 mmHg 29%
    13:00 +14°C° 0 mm 2 m/s 590 mmHg 31%
    14:00 +13°C° 0 mm 2 m/s 589 mmHg 34%
    15:00 +13°C° 0 mm 2 m/s 589 mmHg 36%
    16:00 +11°C° 0 mm 1 m/s 588 mmHg 44%
    17:00 +9°C° 0 mm 1 m/s 587 mmHg 52%
    18:00 +6°C° 0 mm 0 m/s 586 mmHg 60%
    19:00 +7°C° 0 mm 1 m/s 586 mmHg 60%
    20:00 +7°C° 0 mm 1 m/s 586 mmHg 59%
    21:00 +6°C° 0 mm 1 m/s 586 mmHg 59%
    22:00 +6°C° 0 mm 1 m/s 586 mmHg 59%
    23:00 +6°C° 0 mm 1 m/s 586 mmHg 60%

    Après-demain, 21 Octobre, Dimanche

    Heure Température Précipitation Vent Pression Humidité
    00:00 +6°C° 0 mm 1 m/s 586 mmHg 60%
    01:00 +5°C° 0 mm 1 m/s 586 mmHg 61%
    02:00 +5°C° 0 mm 1 m/s 586 mmHg 61%
    03:00 +5°C° 0 mm 1 m/s 586 mmHg 61%
    04:00 +5°C° 0 mm 1 m/s 585 mmHg 60%
    05:00 +5°C° 0 mm 1 m/s 585 mmHg 58%
    06:00 +5°C° 0 mm 1 m/s 585 mmHg 56%
    07:00 +7°C° 0 mm 1 m/s 587 mmHg 51%
    08:00 +9°C° 0 mm 1 m/s 588 mmHg 45%
    09:00 +11°C° 0 mm 1 m/s 589 mmHg 39%
    10:00 +12°C° 0 mm 1 m/s 589 mmHg 39%
    11:00 +13°C° 0 mm 1 m/s 589 mmHg 38%
    12:00 +14°C° 0 mm 2 m/s 590 mmHg 38%
    13:00 +14°C° 0 mm 2 m/s 589 mmHg 40%
    14:00 +13°C° 0 mm 2 m/s 589 mmHg 42%
    15:00 +13°C° 0 mm 2 m/s 589 mmHg 45%
    16:00 +11°C° 0 mm 1 m/s 588 mmHg 52%
    17:00 +9°C° 0 mm 1 m/s 587 mmHg 60%
    18:00 +6°C° 0 mm 0 m/s 586 mmHg 68%
    19:00 +7°C° 0 mm 1 m/s 587 mmHg 68%
    20:00 +7°C° 0 mm 1 m/s 587 mmHg 67%
    21:00 +7°C° 0 mm 1 m/s 587 mmHg 66%
    22:00 +7°C° 0 mm 1 m/s 587 mmHg 66%
    23:00 +6°C° 0 mm 2 m/s 586 mmHg 65%

    22 Octobre, Lundi

    Heure Température Précipitation Vent Pression Humidité
    00:00 +5°C° 0 mm 2 m/s 586 mmHg 65%
    01:00 +5°C° 0 mm 2 m/s 586 mmHg 64%
    02:00 +5°C° 0 mm 2 m/s 586 mmHg 63%
    03:00 +5°C° 0 mm 2 m/s 586 mmHg 63%
    04:00 +5°C° 0 mm 2 m/s 586 mmHg 63%
    05:00 +5°C° 0 mm 2 m/s 586 mmHg 64%
    06:00 +5°C° 0 mm 2 m/s 586 mmHg 64%
    07:00 +7°C° 0 mm 2 m/s 587 mmHg 59%
    08:00 +9°C° 0 mm 1 m/s 588 mmHg 54%
    09:00 +11°C° 0 mm 1 m/s 589 mmHg 50%
    10:00 +12°C° 0 mm 2 m/s 589 mmHg 48%
    11:00 +13°C° 0 mm 2 m/s 590 mmHg 46%
    12:00 +14°C° 0 mm 2 m/s 590 mmHg 45%
    13:00 +13°C° 0 mm 2 m/s 590 mmHg 48%
    14:00 +13°C° 0 mm 2 m/s 589 mmHg 51%
    15:00 +12°C° 0 mm 2 m/s 589 mmHg 54%
    16:00 +11°C° 0 mm 1 m/s 589 mmHg 62%
    17:00 +9°C° 0 mm 1 m/s 588 mmHg 70%
    18:00 +8°C° 0 mm 1 m/s 588 mmHg 78%
    19:00 +7°C° 0 mm 1 m/s 587 mmHg 80%
    20:00 +7°C° 0 mm 1 m/s 587 mmHg 82%
    21:00 +6°C° 0 mm 1 m/s 587 mmHg 84%
    22:00 +6°C° 0 mm 1 m/s 587 mmHg 81%
    23:00 +6°C° 0 mm 1 m/s 587 mmHg 79%

    23 Octobre, Mardi

    Heure Température Précipitation Vent Pression Humidité
    00:00 +6°C° 0 mm 1 m/s 587 mmHg 77%
    01:00 +6°C° 0 mm 1 m/s 587 mmHg 73%
    02:00 +5°C° 0 mm 1 m/s 587 mmHg 69%
    03:00 +4°C° 0 mm 2 m/s 587 mmHg 66%
    04:00 +4°C° 0 mm 2 m/s 587 mmHg 65%
    05:00 +4°C° 0 mm 2 m/s 587 mmHg 65%
    06:00 +4°C° 0 mm 2 m/s 587 mmHg 64%
    07:00 +6°C° 0 mm 2 m/s 588 mmHg 62%
    08:00 +8°C° 0 mm 2 m/s 588 mmHg 59%
    09:00 +9°C° 0 mm 2 m/s 589 mmHg 57%
    10:00 +10°C° 0 mm 2 m/s 590 mmHg 55%
    11:00 +12°C° 0 mm 2 m/s 590 mmHg 53%
    12:00 +13°C° 0 mm 2 m/s 590 mmHg 51%
    13:00 +13°C° 0 mm 2 m/s 590 mmHg 51%
    14:00 +13°C° 0 mm 2 m/s 589 mmHg 51%
    15:00 +13°C° 0 mm 2 m/s 589 mmHg 51%
    16:00 +11°C° 0 mm 1 m/s 588 mmHg 58%
    17:00 +9°C° 0 mm 1 m/s 587 mmHg 65%
    18:00 +7°C° 0 mm 1 m/s 587 mmHg 72%
    19:00 +7°C° 0 mm 1 m/s 587 mmHg 69%
    20:00 +7°C° 0 mm 1 m/s 587 mmHg 66%
    21:00 +7°C° 0 mm 1 m/s 587 mmHg 64%
    22:00 +7°C° 0 mm 1 m/s 586 mmHg 62%
    23:00 +6°C° 0 mm 2 m/s 586 mmHg 60%

    24 Octobre, Mercredi

    Heure Température Précipitation Vent Pression Humidité
    00:00 +6°C° 0 mm 2 m/s 586 mmHg 59%
    01:00 +5°C° 0 mm 2 m/s 586 mmHg 61%
    02:00 +5°C° 0 mm 2 m/s 585 mmHg 64%
    03:00 +5°C° 0 mm 2 m/s 585 mmHg 66%
    04:00 +5°C° 0 mm 2 m/s 585 mmHg 69%
    05:00 +5°C° 0 mm 2 m/s 585 mmHg 72%
    06:00 +4°C° 0 mm 2 m/s 585 mmHg 75%
    07:00 +6°C° 0 mm 2 m/s 585 mmHg 69%
    08:00 +8°C° 0 mm 2 m/s 586 mmHg 63%
    09:00 +10°C° 0 mm 2 m/s 587 mmHg 57%
    10:00 +12°C° 0 mm 2 m/s 587 mmHg 54%
    11:00 +13°C° 0 mm 2 m/s 587 mmHg 50%
    12:00 +14°C° 0 mm 2 m/s 587 mmHg 46%
    13:00 +13°C° 0 mm 2 m/s 586 mmHg 46%
    14:00 +13°C° 0 mm 2 m/s 586 mmHg 46%
    15:00 +13°C° 0 mm 2 m/s 585 mmHg 45%
    16:00 +12°C° 0 mm 2 m/s 585 mmHg 51%
    17:00 +9°C° 0 mm 2 m/s 584 mmHg 57%
    18:00 +7°C° 0 mm 2 m/s 583 mmHg 62%
    19:00 +7°C° 0.1 mm 2 m/s 582 mmHg 64%
    20:00 +7°C° 0.1 mm 3 m/s 582 mmHg 65%
    21:00 +7°C° 0.1 mm 3 m/s 582 mmHg 67%
    22:00 +7°C° 0.3 mm 3 m/s 581 mmHg 70%
    23:00 +5°C° 0.3 mm 3 m/s 581 mmHg 74%
    Voir plus